Location: Madrid
(40.4000°N, 3.6830°W)
Time: 18:22:58
(UTC+01:00)

ISS - Pass Details

Date: 18 January 2020
Orbit: 415 x 422 km, 51.6° (Epoch: 23 January)

Event Time Altitude Azimuth Distance (km) Brightness Sun altitude
Rises 19:52:34 0° 199° (SSW) 2,354 0.5 -18.2°
Reaches altitude 10° 19:55:00 10° 182° (S) 1,494 -0.8 -18.7°
Enters shadow 19:56:27 17° 159° (SSE) 1,124 -1.7 -18.9°
